Find Kuiper-00043

NORAD ID: 64504 Int'l Des: 2025-134 Owner: KUIP Country: US Constellation: amazon-leo operational
LEOCIRCULAR

Aktuelle Ansicht

3D-Globus wird geladen...

Über Kuiper-00043

Beschreibung wird geladen...

Nächste Überflüge

Passes for default location (London). Set your location on the main map for personalized predictions.

Höhenverlauf

Loading altitude history...

Zweizeiliger Elementsatz

1 64504U 25134E 26151.45562036 .00003121 00000-0 43817-3 0 9993
2 64504 51.9014 227.0532 0000459 130.9408 229.1594 14.79940467 52331
Epoch: 31. Mai 2026 • Age: 10 hours

Aktueller Status

Höhe 629.9 km
Geschwindigkeit 7.55 km/s
Subsatellitenpunkt 20.21°N, 40.93°E
Startdatum 23. Juni 2025
Alter 0.9 years
Typ internet

Technische Details

Klassifizierung Payload
Masse 490.00 kg
Trockenmasse 490.00 kg
Gesamtmasse 490.00 kg
Länge 1.80 m
Durchmesser 0.70 m
Spannweite 5.00 m
Form Box + 2 pan
Hersteller KUIP
Bus-Typ Kuiper
Phasenstatus In Orbit
Besitzer/Staat KUIP/US

Most Searched